Location: La Silve
(44.2414°N, 5.8889°E)
Time: 07:23:43
(UTC+00:00)

CENTAUR R/B - Pass Details

Date: 19 April 2021
Orbit: 742 x 1446 km, 63.4° (Epoch: 18 April)

Event Time Altitude Azimuth Distance (km) Brightness Sun altitude
Rises 19:44:12 0° 313° (NW) 4,297 7.6 -13.6°
Reaches altitude 10° 19:47:34 10° 301° (WNW) 3,409 6.8 -14.1°
Maximum altitude 19:53:57 24° 252° (WSW) 2,574 5.1 -15.1°
Drops below altitude 10° 20:00:36 10° 203° (SSW) 3,553 5.3 -16.1°
Sets 20:04:14 0° 191° (S) 4,516 5.7 -16.6°
